Home   Weather   Dresden   Past weeks

Flag for Germany Past Weather in Dresden, Saxony, Germany — Yesterday and Last 2 Weeks

Now
61 °F

Fog.


Feels Like: 61 °F
Forecast: 60 / 73 °F
Wind: 7 mph from South

Location: Dresden-Klotzsche

Current Time: Jul 23, 2017 at 6:44:50 am

Latest Report: Jul 23, 2017 at 5:50 am


Visibility: 0 mi

Pressure: 29.92 "Hg

Humidity: 100%

Dew Point: 61 °F

Location of DresdenLocation

Past Weather in Dresden — Graph

°F

Dresden Temperature Yesterday

Maximum temperature yesterday: 81 °F (at 11:20 am)
Minimum temperature yesterday: 64 °F (at 2:20 am)
Average temperature yesterday: 71 °F

High & Low Weather Summary for the Past Weeks

 TemperatureHumidityPressure
High86 °F (Jul 19, 4:20 pm)100% (Jul 18, 5:50 am)30.27 "Hg (Jul 18, 5:50 am)
Low48 °F (Jul 14, 4:20 am)33% (Jul 16, 4:50 pm)29.71 "Hg (Jul 10, 4:50 pm)
Average67 °F72%29.99 "Hg
* Reported Jul 8 4:20 am — Jul 23 4:50 am, Dresden. Weather by CustomWeather, © 2017

Note: Actual official high and low records may vary slightly from our data, if they occured in-between our weather recording intervals... More about our weather records

Advertising

Dresden Weather History for the Previous 24 Hours

Scroll right to see more
 ConditionsComfort  
Time TempWeatherWind HumidityBarometerVisibility
4:50 am
Sun, Jul 23
63 °FFog.7 mph100%29.92 "Hg0 mi
4:20 am63 °FFog.6 mph94%29.92 "Hg1 mi
3:20 am63 °FFog.8 mph94%29.92 "Hg5 mi
2:50 am64 °FClear.3 mph94%29.92 "Hg10 mi
2:20 am64 °FClear.6 mph94%29.92 "Hg10 mi
1:50 am64 °FClear.2 mph94%29.92 "Hg10 mi
1:20 am64 °FClear.2 mph94%29.95 "Hg10 mi
12:50 am66 °FClear.3 mph88%29.92 "Hg10 mi
12:20 am66 °FClear.5 mph88%29.95 "Hg10 mi
11:50 pm
Sat, Jul 22
66 °FClear.2 mph94%29.95 "Hg10 mi
11:20 pm66 °FClear.2 mph94%29.95 "Hg10 mi
10:50 pm66 °FClear.3 mph94%29.95 "Hg10 mi
10:20 pm66 °FClear.5 mph94%29.95 "Hg10 mi
9:50 pm68 °FClear.3 mph94%29.95 "Hg10 mi
9:20 pm70 °FClear.5 mph88%29.95 "Hg10 mi
8:50 pm70 °FSunny.6 mph88%29.95 "Hg10 mi
8:20 pm72 °FSunny.5 mph83%29.95 "Hg10 mi
7:50 pm75 °FSunny.3 mph74%29.95 "Hg10 mi
7:20 pm73 °FSunny.2 mph78%29.92 "Hg10 mi
6:50 pm75 °FSunny.2 mph69%29.92 "Hg10 mi
6:20 pm73 °FBroken clouds.3 mph78%29.95 "HgN/A
5:50 pm72 °FBroken clouds.6 mph78%29.95 "HgN/A
5:20 pm70 °FBroken clouds.3 mph83%29.92 "HgN/A
4:50 pm66 °FThundershowers. Broken clouds.6 mph94%29.95 "HgN/A
4:20 pm64 °FThundershowers. Partly sunny.3 mph94%29.95 "Hg3 mi
3:50 pm64 °FThunderstorms. Partly sunny.7 mph94%29.95 "Hg1 mi
3:01 pm70 °FThundershowers. Partly sunny.24 mph78%29.92 "HgN/A
2:50 pm73 °FPartly sunny.5 mph61%29.92 "HgN/A
2:20 pm81 °FBroken clouds.2 mph48%29.92 "HgN/A
1:50 pm81 °FPassing clouds.9 mph48%29.92 "HgN/A
1:20 pm79 °FSunny.12 mph54%29.92 "Hg10 mi
12:50 pm81 °FPassing clouds.13 mph48%29.92 "HgN/A
12:20 pm81 °FPartly sunny.6 mph48%29.92 "HgN/A
11:50 am79 °FPassing clouds.10 mph51%29.92 "HgN/A
11:20 am81 °FPassing clouds.12 mph48%29.92 "HgN/A
10:50 am79 °FPassing clouds.9 mph54%29.92 "HgN/A
10:20 am75 °FPassing clouds.6 mph61%29.92 "HgN/A
9:50 am73 °FPassing clouds.8 mph65%29.92 "HgN/A
9:20 am73 °FSunny.7 mph65%29.92 "Hg10 mi
8:50 am73 °FPassing clouds.6 mph61%29.92 "HgN/A
8:20 am73 °FPassing clouds.7 mph65%29.92 "HgN/A
7:50 am70 °FPassing clouds.7 mph69%29.92 "HgN/A
7:20 am70 °FPassing clouds.6 mph69%29.92 "HgN/A
6:50 am68 °FPassing clouds.3 mph73%29.92 "HgN/A
6:20 am66 °FSunny.7 mph78%29.92 "Hg10 mi
Weather by CustomWeather, © 2017

See weather overviewHow to use our weather pages